Regional Weather Roundup
Issued by NWS Green Bay, WI

Home | Current Version | Previous Version | Graphics & Text | Print | Product List | Glossary Off
Versions: 1 2 3 4 5 6 7 8 9 10 11 12 13 14 15 16 17 18 19 20 21 22 23 24 25 26 27 28 29 30 31 32 33 34 35 36 37 38 39 40 41 42 43 44 45 46 47 48 49 50

000
ASUS43 KGRB 220110
RWRGRB

NORTH-CENTRAL AND NORTHEAST WISCONSIN REGIONAL WEATHER ROUNDUP
NATIONAL WEATHER SERVICE GREEN BAY WI
700 PM CST SUN DEC 21 2014

WIZ005-009-010>012-018-019-220200-
NORTH CENTRAL WISCONSIN

CITY           SKY/WX    TMP DP  RH WIND       PRES   REMARKS
IRONWOOD       CLOUDY    34  30  86 S8        29.78S
MANITOWISH WTR LGT SNOW  32  32 100 S8        29.81F
ARBOR VITAE    LGT SNOW  34  32  93 S12G18    29.83S
EAGLE RIVER    LGT SNOW  32  32 100 S9        29.84S
LAND O LAKES   LGT SNOW  33  32  98 S8        29.84F
RHINELANDER    LGT SNOW  32  30  92 S10G18    29.85F FOG
PHILLIPS       MIX PCPN  32  32  99 S9        29.80F
ANTIGO         CLOUDY    31  31 100 S14       29.90S FOG
TOMAHAWK       LGT RAIN  32  31  98 CALM      29.85S
MERRILL        LGT SNOW  33  33 100 S10G16    29.87S
$$

WIZ013-073-220200-
NORTHEAST WISCONSIN

CITY           SKY/WX    TMP DP  RH WIND       PRES   REMARKS
IRON MOUNTAIN  CLOUDY    33  31  92 SE10G22   29.92F FOG
MARINETTE      CLOUDY    36  32  87 S13       30.00S
OCONTO         CLOUDY    34  33  97 S9        30.00S
$$

WIZ017-030-035>037-045-220200-
CENTRAL WISCONSIN

CITY           SKY/WX    TMP DP  RH WIND       PRES   REMARKS
MEDFORD        LGT RAIN  32  32  99 SE12G21   29.83S
WAUSAU         CLOUDY    34  32  92 S15G22    29.87F FOG
MOSINEE        NOT AVBL
MARSHFIELD     CLOUDY    34  32  92 S16       29.86F FOG
WISC RAPIDS    CLOUDY    35  32  88 S10       29.91F FOG
STEVENS POINT  CLOUDY    32  32  99 S13       29.91F FOG
WAUPACA        CLOUDY    36  33  88 SE10G16   29.96S FOG
SHAWANO        CLOUDY    36  33  89 S8        29.97S FOG
CLINTONVILLE   CLOUDY    34  32  93 S10       29.97S FOG
$$

WIZ038-039-048-051-220200-
FOX VALLEY

CITY           SKY/WX    TMP DP  RH WIND       PRES   REMARKS
NWS GREEN BAY  CLOUDY    36  31  82 S16       30.00S
APPLETON       CLOUDY    34  32  93 S14       29.99S FOG
OSHKOSH        CLOUDY    35  30  82 S12       29.99S
FOND DU LAC    CLOUDY    35  29  78 S18       29.99S
$$

WIZ022-050-052-220200-
EAST CENTRAL WISCONSIN

CITY           SKY/WX    TMP DP  RH WIND       PRES   REMARKS
STURGEON BAY   CLOUDY    36  34  93 S12G17    30.03S
MANITOWOC      CLOUDY    37  34  89 S17       30.04S
SHEBOYGAN      CLOUDY    36  31  82 S14       30.03S
$$

LMZ563-521-522-541>543-220200-
LAKESHORE

STATION/POSITION TIME  TEMP    WIND        PRES    VSBY  WAVE
                       AIR SEA DIR/SP/G                  HT/PER
                 (UTC) (F)     (DEG/KT/KT) (MB)    (MI)  (FT/S)
SHEBOYGAN LKSHOR 0100   38 37  180/ 25/ 30 1017.5F
KEWAUNEE LKSHORE 0100   37     180/ 18/ 20 1016.1S
ALGOMA MARINA    0000          220/ 20/ 23   N/A
NORTHPORT PIER   0100   36     160/ 11/ 19 1016.9S
SISTER BAY LKSHO 0100          180/ 17/ 22   N/A
STURGEON BAY CG  0100   37     180/ 11     1017.8      6   2
CHAMBERS ISLAND  0100   37     150/  7/ 13 1016.6S
MENOMINEE LKSHOR 0100   35     160/ 10/ 14 1016.6S
$$


USA.gov is the U.S. government's official web portal to all federal, state and local government web resources and services.